Regional Weather Roundup
Issued by NWS

Home | Current Version | Previous Version | Text Only | Print | Product List | Glossary Off
Versions: 1 2 3 4 5 6 7 8 9 10 11 12 13 14 15 16 17 18 19 20 21 22 23 24 25 26 27 28 29 30 31 32 33 34 35 36 37 38 39 40 41 42 43 44 45 46 47 48 49 50

000
ASUS43 KLOT 271758
RWRIL

ILLINOIS REGIONAL WEATHER ROUNDUP
NATIONAL WEATHER SERVICE CHICAGO/ROMEOVILLE IL
1200 PM CST THU NOV 27 2014

NOTE: "FAIR" INDICATES FEW OR NO CLOUDS BELOW 12,000 FEET WITH NO
SIGNIFICANT WEATHER AND/OR OBSTRUCTIONS TO VISIBILITY.

* THESE STATIONS ARE NOT UNDER NWS QUALITY CONTROL. THEY ALSO MAY NOT
  REPORT WEATHER SUCH AS PRECIPITATION OR FOG.

ILZ001-002-007-009-015-016-024-271900-
NORTHWEST ILLINOIS

CITY           SKY/WX    TMP DP  RH WIND       PRES   REMARKS
MOLINE         SUNNY     20  10  65 NW15      30.43F WCI   6
6HR MIN TEMP:  20; 6HR MAX TEMP:  26; 6HR PCP: TRACE;

$$

ILZ003-004-008-010-011-017-018-271900-
NORTH CENTRAL ILLINOIS

CITY           SKY/WX    TMP DP  RH WIND       PRES   REMARKS
ROCKFORD       NOT AVBL
$$

ILZ005-006-012>014-019>023-271900-
NORTHEAST ILLINOIS

CITY           SKY/WX    TMP DP  RH WIND       PRES   REMARKS
CHICAGO-OHARE  PTSUNNY   26  17  68 NW16      30.33S WCI  14
6HR MIN TEMP:  24; 6HR MAX TEMP:  27; 6HR PCP: TRACE;

CHICAGO-MIDWAY PTSUNNY   28  17  63 NW15      30.33S WCI  16
6HR MIN TEMP:  25; 6HR MAX TEMP:  30;

AURORA         CLOUDY    26  17  68 NW15      30.35F WCI  14
6HR MIN TEMP:  22; 6HR MAX TEMP:  27; 6HR PCP: TRACE;

WAUKEGAN       NOT AVBL
DUPAGE AIRPORT CLOUDY    25  17  72 NW15      30.34S WCI  13
6HR MIN TEMP:  22; 6HR MAX TEMP:  26;

WHEELING       CLOUDY    24  15  68 NW18G25   30.36R WCI  10
6HR MIN TEMP:  24; 6HR MAX TEMP:  26;

NORTHERLY ISL    N/A     27  18  69 NW14        N/A  WCI  16
$$

LMZ740>746-271900-
SOUTHERN LAKE MICHIGAN

STATION/POSITION SKY/WX   TEMP    WIND        PRES    VSBY  WAVE
                          AIR SEA DIR/SP/G                  HT/PER
                          (F)     (DEG/KT/KT) (MB)    (MI)  (FT/S)
SOUTHERN BUOY              30 42  300/ 19/ 25 1025.9R         5/ 6
WAUKEGAN HARBOR            23     310/ 11/ 19   N/A
HARRISON CRIB              26     310/ 16/ 19   N/A
BURNHAM HARBOR             28     270/ 15       N/A
CALUMET HARBOR             27     270/  8/ 18 1025.6S
MICHIGAN CITY              29     280/ 20/ 24   N/A
$$

ILZ025>027-034>036-040-047-049-050-058-095>099-271900-
WEST-CENTRAL ILLINOIS

CITY           SKY/WX    TMP DP  RH WIND       PRES   REMARKS
$$

ILZ028>032-037-038-041>044-048-051>054-059>061-271900-
CENTRAL ILLINOIS

CITY           SKY/WX    TMP DP  RH WIND       PRES   REMARKS
PEORIA         NOT AVBL
SPRINGFIELD    MIX PCPN  26  20  77 NW16      30.44F WCI  14
6HR MIN TEMP:  26; 6HR MAX TEMP:  28; 6HR PCP: TRACE;

TAYLORVILLE    NOT AVBL
$$

ILZ033-039-045-046-055>057-062-063-271900-
EAST-CENTRAL ILLINOIS

CITY           SKY/WX    TMP DP  RH WIND       PRES   REMARKS
CHAMPAIGN      FLURRIES  28  22  78 NW15      30.38F WCI  16
MATTOON        CLOUDY    28  21  75 NW16      30.39F WCI  16
$$

ILZ079-100>102-271900-
SOUTHWEST ILLINOIS

CITY           SKY/WX    TMP DP  RH WIND       PRES   REMARKS
ALTON          PTSUNNY   30  23  74 NW14      30.46F WCI  20
CAHOKIA*       CLOUDY    33  24  69 N12       30.47F WCI  24
$$

ILZ064>066-069>071-074>076-080>082-084>086-088>090-092>094-271900-
SOUTH-CENTRAL ILLINOIS

CITY           SKY/WX    TMP DP  RH WIND       PRES   REMARKS
CARBONDALE     CLOUDY    31  26  82 NW6       30.48F WCI  25
6HR MIN TEMP:  29; 6HR MAX TEMP:  31;

MARION         CLOUDY    32  27  80 NW12      30.48F HAZE    WCI  23
$$

ILZ067-068-072-073-078-083-087-091-271900-
SOUTHEAST ILLINOIS

CITY           SKY/WX    TMP DP  RH WIND       PRES   REMARKS
$$

ABBREVIATIONS USED IN REMARKS
   TC - TEMPERATURE IN CELSIUS
  WCI - WIND CHILL INDEX
   HX - HEAT INDEX
  VSB - VISIBILITY
$$




USA.gov is the U.S. government's official web portal to all federal, state and local government web resources and services.